Simultaneous Nadir Overpasses (SNOs) Predictions

Prediction of SNOs between NOAA-19 and NPP Satellite Orbit:

Table of predicted SNOs for the next 14.0 days since TLE Epoch: 4/6/2012
Index Date (NOAA-19) Time (NOAA-19) NOAA-19 Lat,Lon Date (NPP) Time (NPP) NPP Lat,Lon Distance(km) Time Diff (sec)
1 04/09/2012 05:11:58 -80.55,-123.65 04/09/2012 05:13:11 -80.55,-123.63 0.46 73
2 04/09/2012 06:03:01 80.46, 44.92 04/09/2012 06:03:53 80.47, 44.80 2.31 52
3 04/09/2012 06:53:59 -80.46,-147.72 04/09/2012 06:54:37 -80.46,-147.73 0.22 38
4 04/09/2012 07:45:01 80.34, 21.16 04/09/2012 07:45:18 80.35, 21.01 2.93 17
5 04/09/2012 08:35:59 -80.33,-171.49 04/09/2012 08:36:02 -80.33,-171.54 0.86 3
6 04/09/2012 09:27:07 80.35, -4.56 04/09/2012 09:26:48 80.35, -4.41 2.94 19
7 04/09/2012 10:17:59
